When you browse on this site, cookies collect data to enhance your experience and personalize the content and advertising you see.
Visit our Privacy Policy to learn more. By continuing to use the site, you agree to this use of cookies and data.
  • în România
  • Lista ţărilor
  • Pe 7 zile
  • Temperatura apei
  • Hartă satelitară
  • Meteo pe hartă
  • Widget-uri
  • user-avatar
    Intrare

    Meteo pe oră la Stavanger

    Astăzi, 21 Iulie, Duminică

    Timp Temperatura Precipitaţii Vânt Presiune Umiditate
    00:00 +17°C° 0.1 mm 2 m/s 754 mmHg 95%
    01:00 +17°C° 0.3 mm 2 m/s 754 mmHg 95%
    02:00 +16°C° 0.3 mm 2 m/s 754 mmHg 95%
    03:00 +16°C° 0.3 mm 2 m/s 754 mmHg 95%
    04:00 +17°C° 0.4 mm 2 m/s 754 mmHg 94%
    05:00 +17°C° 0.4 mm 2 m/s 754 mmHg 93%
    06:00 +19°C° 0.4 mm 1 m/s 754 mmHg 93%
    07:00 +18°C° 0.5 mm 2 m/s 755 mmHg 93%
    08:00 +18°C° 0.5 mm 2 m/s 755 mmHg 92%
    09:00 +18°C° 0.5 mm 2 m/s 756 mmHg 92%
    10:00 +17°C° 0.2 mm 4 m/s 756 mmHg 94%
    11:00 +16°C° 0.2 mm 5 m/s 757 mmHg 95%
    12:00 +15°C° 0.2 mm 6 m/s 757 mmHg 96%
    13:00 +15°C° 0 mm 6 m/s 757 mmHg 94%
    14:00 +15°C° 0 mm 5 m/s 758 mmHg 92%
    15:00 +15°C° 0 mm 5 m/s 759 mmHg 90%
    16:00 +15°C° 0 mm 4 m/s 759 mmHg 88%
    17:00 +16°C° 0 mm 3 m/s 759 mmHg 86%
    18:00 +16°C° 0 mm 3 m/s 759 mmHg 84%
    19:00 +14°C° 0 mm 2 m/s 759 mmHg 88%
    20:00 +13°C° 0 mm 2 m/s 760 mmHg 92%
    21:00 +12°C° 0 mm 1 m/s 760 mmHg 96%
    22:00 +12°C° 0 mm 1 m/s 760 mmHg 95%
    23:00 +12°C° 0 mm 2 m/s 760 mmHg 94%

    Mâine, 22 Iulie, Luni

    Timp Temperatura Precipitaţii Vânt Presiune Umiditate
    00:00 +10°C° 0 mm 2 m/s 760 mmHg 93%
    01:00 +10°C° 0 mm 2 m/s 760 mmHg 91%
    02:00 +11°C° 0 mm 3 m/s 760 mmHg 90%
    03:00 +11°C° 0 mm 3 m/s 760 mmHg 89%
    04:00 +12°C° 0 mm 3 m/s 759 mmHg 86%
    05:00 +13°C° 0 mm 4 m/s 759 mmHg 83%
    06:00 +15°C° 0 mm 4 m/s 759 mmHg 81%
    07:00 +15°C° 0.1 mm 4 m/s 758 mmHg 82%
    08:00 +15°C° 0.1 mm 5 m/s 758 mmHg 84%
    09:00 +15°C° 0.1 mm 5 m/s 757 mmHg 86%
    10:00 +15°C° 1.1 mm 6 m/s 757 mmHg 89%
    11:00 +15°C° 1.1 mm 6 m/s 757 mmHg 92%
    12:00 +15°C° 1.1 mm 6 m/s 756 mmHg 95%
    13:00 +15°C° 1.9 mm 6 m/s 756 mmHg 96%
    14:00 +15°C° 1.9 mm 6 m/s 757 mmHg 97%
    15:00 +15°C° 1.9 mm 5 m/s 757 mmHg 97%
    16:00 +15°C° 0.6 mm 5 m/s 757 mmHg 98%
    17:00 +15°C° 0.6 mm 5 m/s 757 mmHg 98%
    18:00 +15°C° 0.6 mm 5 m/s 757 mmHg 98%
    19:00 +15°C° 0 mm 5 m/s 758 mmHg 98%
    20:00 +15°C° 0 mm 5 m/s 758 mmHg 98%
    21:00 +15°C° 0 mm 5 m/s 758 mmHg 98%
    22:00 +15°C° 0 mm 5 m/s 759 mmHg 98%
    23:00 +15°C° 0 mm 4 m/s 759 mmHg 98%

    Poimâine, 23 Iulie, Marţi

    Timp Temperatura Precipitaţii Vânt Presiune Umiditate
    00:00 +15°C° 0 mm 4 m/s 759 mmHg 98%
    01:00 +17°C° 0 mm 3 m/s 759 mmHg 98%
    02:00 +17°C° 0 mm 3 m/s 760 mmHg 98%
    03:00 +17°C° 0 mm 3 m/s 760 mmHg 98%
    04:00 +17°C° 0 mm 3 m/s 760 mmHg 97%
    05:00 +18°C° 0 mm 3 m/s 760 mmHg 96%
    06:00 +18°C° 0 mm 3 m/s 760 mmHg 95%
    07:00 +19°C° 0 mm 3 m/s 760 mmHg 93%
    08:00 +20°C° 0 mm 3 m/s 761 mmHg 90%
    09:00 +20°C° 0 mm 3 m/s 761 mmHg 88%
    10:00 +22°C° 0 mm 3 m/s 761 mmHg 83%
    11:00 +24°C° 0 mm 3 m/s 761 mmHg 77%
    12:00 +25°C° 0 mm 3 m/s 761 mmHg 72%
    13:00 +25°C° 0 mm 3 m/s 762 mmHg 73%
    14:00 +24°C° 0 mm 3 m/s 762 mmHg 74%
    15:00 +24°C° 0 mm 2 m/s 762 mmHg 75%
    16:00 +23°C° 0 mm 2 m/s 762 mmHg 78%
    17:00 +23°C° 0 mm 2 m/s 762 mmHg 81%
    18:00 +22°C° 0 mm 1 m/s 762 mmHg 84%
    19:00 +20°C° 0 mm 1 m/s 762 mmHg 89%
    20:00 +19°C° 0 mm 1 m/s 762 mmHg 93%
    21:00 +16°C° 0 mm 1 m/s 762 mmHg 98%
    22:00 +16°C° 0 mm 1 m/s 762 mmHg 98%
    23:00 +18°C° 0 mm 1 m/s 762 mmHg 98%

    24 Iulie, Miercuri

    Timp Temperatura Precipitaţii Vânt Presiune Umiditate
    00:00 +18°C° 0 mm 1 m/s 762 mmHg 97%
    01:00 +18°C° 0 mm 1 m/s 762 mmHg 97%
    02:00 +16°C° 0 mm 0 m/s 762 mmHg 97%
    03:00 +16°C° 0 mm 0 m/s 762 mmHg 96%
    04:00 +17°C° 0 mm 0 m/s 762 mmHg 92%
    05:00 +18°C° 0 mm 0 m/s 762 mmHg 89%
    06:00 +19°C° 0 mm 0 m/s 762 mmHg 85%
    07:00 +22°C° 0 mm 1 m/s 762 mmHg 77%
    08:00 +24°C° 0 mm 1 m/s 762 mmHg 69%
    09:00 +26°C° 0 mm 1 m/s 762 mmHg 61%
    10:00 +26°C° 0 mm 1 m/s 762 mmHg 58%
    11:00 +27°C° 0 mm 1 m/s 762 mmHg 54%
    12:00 +28°C° 0 mm 2 m/s 762 mmHg 51%
    13:00 +28°C° 0 mm 2 m/s 761 mmHg 50%
    14:00 +28°C° 0 mm 2 m/s 761 mmHg 50%
    15:00 +28°C° 0 mm 2 m/s 761 mmHg 49%
    16:00 +27°C° 0 mm 2 m/s 761 mmHg 53%
    17:00 +26°C° 0 mm 2 m/s 761 mmHg 57%
    18:00 +26°C° 0 mm 2 m/s 760 mmHg 61%
    19:00 +24°C° 0 mm 2 m/s 760 mmHg 65%
    20:00 +23°C° 0 mm 2 m/s 760 mmHg 68%
    21:00 +20°C° 0 mm 3 m/s 760 mmHg 71%
    22:00 +21°C° 0 mm 3 m/s 760 mmHg 69%
    23:00 +21°C° 0 mm 4 m/s 760 mmHg 66%

    25 Iulie, Joi

    Timp Temperatura Precipitaţii Vânt Presiune Umiditate
    00:00 +21°C° 0 mm 4 m/s 760 mmHg 64%
    01:00 +21°C° 0 mm 4 m/s 760 mmHg 67%
    02:00 +21°C° 0 mm 5 m/s 760 mmHg 70%
    03:00 +21°C° 0 mm 5 m/s 760 mmHg 74%
    04:00 +22°C° 0.1 mm 5 m/s 760 mmHg 73%
    05:00 +23°C° 0.1 mm 5 m/s 761 mmHg 73%
    06:00 +25°C° 0.1 mm 5 m/s 761 mmHg 73%
    07:00 +26°C° 0 mm 4 m/s 761 mmHg 68%
    08:00 +28°C° 0 mm 4 m/s 761 mmHg 63%
    09:00 +29°C° 0 mm 4 m/s 761 mmHg 59%
    10:00 +30°C° 0 mm 5 m/s 761 mmHg 56%
    11:00 +32°C° 0 mm 6 m/s 761 mmHg 53%
    12:00 +33°C° 0 mm 7 m/s 760 mmHg 50%
    13:00 +33°C° 0.2 mm 8 m/s 760 mmHg 50%
    14:00 +32°C° 0.2 mm 8 m/s 760 mmHg 50%
    15:00 +32°C° 0.2 mm 9 m/s 760 mmHg 50%
    16:00 +31°C° 0.4 mm 8 m/s 760 mmHg 53%
    17:00 +31°C° 0.4 mm 8 m/s 760 mmHg 57%
    18:00 +29°C° 0.4 mm 7 m/s 760 mmHg 61%
    19:00 +28°C° 0 mm 7 m/s 760 mmHg 66%
    20:00 +27°C° 0 mm 7 m/s 760 mmHg 71%
    21:00 +26°C° 0 mm 6 m/s 761 mmHg 76%
    22:00 +26°C° 0 mm 6 m/s 761 mmHg 77%
    23:00 +24°C° 0 mm 6 m/s 761 mmHg 78%

    26 Iulie, Vineri

    Timp Temperatura Precipitaţii Vânt Presiune Umiditate
    00:00 +24°C° 0 mm 6 m/s 761 mmHg 79%
    01:00 +23°C° 0 mm 6 m/s 761 mmHg 78%
    02:00 +23°C° 0 mm 6 m/s 760 mmHg 76%
    03:00 +23°C° 0 mm 6 m/s 760 mmHg 75%
    04:00 +23°C° 0 mm 6 m/s 760 mmHg 70%
    05:00 +24°C° 0 mm 6 m/s 760 mmHg 65%
    06:00 +26°C° 0 mm 7 m/s 760 mmHg 60%
    07:00 +27°C° 0 mm 7 m/s 760 mmHg 57%
    08:00 +28°C° 0 mm 8 m/s 760 mmHg 54%
    09:00 +29°C° 0 mm 8 m/s 760 mmHg 50%
    10:00 +31°C° 0 mm 8 m/s 760 mmHg 48%
    11:00 +31°C° 0 mm 8 m/s 760 mmHg 47%
    12:00 +32°C° 0 mm 9 m/s 759 mmHg 45%
    13:00 +31°C° 0 mm 8 m/s 759 mmHg 47%
    14:00 +31°C° 0 mm 8 m/s 759 mmHg 48%
    15:00 +31°C° 0 mm 8 m/s 759 mmHg 50%
    16:00 +28°C° 0.2 mm 7 m/s 759 mmHg 59%
    17:00 +27°C° 0.2 mm 5 m/s 759 mmHg 68%
    18:00 +25°C° 0.2 mm 4 m/s 759 mmHg 77%
    19:00 +23°C° 0.3 mm 4 m/s 759 mmHg 82%
    20:00 +22°C° 0.3 mm 3 m/s 759 mmHg 87%
    21:00 +20°C° 0.3 mm 3 m/s 759 mmHg 91%
    22:00 +20°C° 1.2 mm 3 m/s 759 mmHg 93%
    23:00 +20°C° 1.2 mm 3 m/s 759 mmHg 94%
    Arată mai mult